GFSGL_850_rhum_000.txt.gz
RH
68 67 69 71 71 74 79 84 89 91 87 83 85 92 98 99 93 94 96 97 84 80 76 70 65 62 61 55 53 54 54 52 48 44 44 42 46 52 56 58 56 56 58
54 69 76 75 76 79 87 94 100 100 99 99 98 96 96 95 98 99 94 84 72 66 67 68 63 53 54 56 56 59 58 57 55 52 49 48 49 50 54 58 59 54 53
61 69 72 83 86 92 97 98 100 99 98 98 98 98 97 98 98 90 77 71 72 73 71 66 61 64 66 63 65 65 62 58 57 56 52 51 51 52 53 56 59 60 61
56 75 78 87 98 82 81 94 96 97 97 92 85 84 83 77 73 67 65 69 70 68 73 76 74 74 74 71 68 65 62 60 56 54 51 50 51 51 53 54 54 58 59
77 78 82 84 83 79 76 75 74 70 60 60 58 60 63 63 56 63 67 69 71 73 77 79 78 81 84 66 70 73 67 64 61 58 56 55 56 56 57 57 59 60 62
85 80 76 75 70 65 66 61 55 54 56 58 60 62 66 64 73 63 62 86 78 73 71 72 75 80 80 82 84 79 83 96 81 75 73 76 71 71 75 76 78 80 74
80 74 75 76 62 60 54 49 52 56 61 64 66 74 77 78 79 65 55 67 84 82 81 80 78 73 77 82 87 94 96 100 100 100 100 97 94 94 93 93 90 86 79
76 74 79 71 61 54 52 54 57 58 62 65 72 78 80 78 81 66 60 72 93 91 90 87 82 78 80 98 100 100 100 100 100 100 100 97 93 93 92 88 88 93 94
73 78 85 69 67 54 54 58 61 65 67 71 81 84 86 89 99 86 71 100 98 97 93 88 92 97 96 95 100 97 100 98 96 96 85 82 87 88 88 97 98 95 91
77 89 74 73 65 58 60 63 68 67 70 84 98 100 100 100 100 100 100 100 100 100 99 99 95 98 93 95 95 96 100 98 95 99 99 97 97 97 82 94 100 96 93
70 73 76 74 62 63 63 65 69 72 87 98 99 98 100 99 100 100 100 100 100 99 100 99 98 97 97 96 96 98 100 100 100 100 98 96 98 99 99 97 97 96 95
70 70 76 71 66 68 67 68 74 79 93 92 92 91 92 97 96 98 100 97 95 97 100 100 97 94 93 93 93 100 92 92 99 98 99 100 100 98 98 99 99 99 97
72 71 72 71 73 71 71 78 81 84 95 97 91 89 85 92 94 94 95 94 97 96 96 97 93 93 94 98 98 94 95 97 98 100 100 97 96 100 96 95 96 100 100
68 69 71 73 76 80 81 84 80 96 99 94 89 88 92 96 98 100 100 100 96 95 95 96 94 95 95 95 97 96 100 100 100 100 100 100 98 95 95 95 94 95 94
64 69 78 87 91 91 86 85 96 100 93 89 96 99 100 100 100 98 98 100 98 96 98 97 95 95 96 98 95 98 100 100 100 100 100 100 100 100 97 98 95 95 96
53 80 89 84 99 100 86 88 93 94 81 69 75 85 100 100 100 98 96 96 95 95 97 95 96 96 98 100 100 100 100 100 100 100 100 100 100 100 100 96 100 99 98
54 61 96 100 100 100 100 100 100 99 98 94 93 87 91 100 99 94 95 96 95 96 95 96 96 96 100 100 100 100 100 100 100 100 100 100 100 100 100 95 96 98 98
54 78 89 100 100 100 100 100 100 100 100 99 98 95 97 96 95 92 94 96 96 95 96 96 96 100 100 100 100 100 100 100 100 100 100 100 99 100 100 100 98 96 96
82 100 90 87 93 91 99 100 100 100 100 100 98 97 100 100 100 97 95 99 96 96 96 98 100 100 100 100 100 100 100 100 100 100 100 100 100 100 100 100 100 98 95
100 100 93 100 100 100 100 100 100 100 99 100 98 100 100 100 100 100 100 100 100 71 75 100 100 100 100 100 100 100 100 100 100 100 100 100 100 100 100 100 100 100 99
100 100 99 100 100 100 100 100 100 100 100 100 100 99 85 100 100 100 100 71 55 51 55 83 96 97 93 99 100 100 100 100 100 100 100 100 100 100 100 100 100 100 100
100 100 100 100 100 100 99 100 100 100 100 100 100 100 96 100 100 100 100 48 20 20 24 28 44 52 49 49 53 84 100 100 97 87 99 100 100 100 100 100 100 100 100
100 100 100 100 100 98 100 100 100 100 100 100 100 100 100 100 100 100 96 57 18 16 19 21 23 24 26 28 32 35 41 39 38 42 56 100 100 100 100 100 100 100 100
100 100 100 100 100 99 100 100 100 100 100 100 100 100 100 97 92 93 88 89 72 18 16 18 20 22 22 21 21 21 21 21 22 24 24 39 85 100 100 100 100 100 100
100 100 100 100 100 100 100 100 100 100 100 100 100 100 100 71 51 57 76 82 82 64 12 14 17 18 19 19 20 20 20 20 20 20 20 23 24 30 44 97 99 100 100
96 100 100 99 100 100 100 98 99 100 100 100 100 100 96 67 30 37 38 33 27 25 24 16 15 17 18 19 20 21 21 20 19 19 18 20 20 20 22 27 33 98 100

GFSGL_850_rhum_003.txt.gz
RH
64 67 68 68 65 64 64 68 80 90 86 95 78 86 89 91 91 94 99 96 96 97 93 90 82 79 72 62 57 56 54 56 55 49 45 43 43 44 46 49 56 58 57
73 68 62 63 66 63 69 82 88 94 100 99 97 91 93 97 97 96 99 93 85 84 86 84 82 76 73 62 56 53 51 50 48 47 46 46 46 46 46 49 52 52 52
74 66 62 64 67 74 80 83 87 87 84 85 84 87 82 78 73 68 68 74 77 74 71 72 69 66 61 59 60 58 56 54 52 50 48 46 46 45 46 47 48 51 53
74 68 63 68 70 69 70 71 68 65 61 56 53 53 54 54 54 54 58 63 59 54 58 62 65 66 67 68 68 66 62 60 55 54 50 47 46 44 45 47 47 48 50
78 71 69 64 63 59 59 60 58 54 50 48 50 51 52 53 55 62 67 77 75 68 63 61 61 70 72 75 76 78 78 75 66 58 55 52 48 46 46 47 50 52 55
78 66 65 63 64 61 57 53 46 45 47 51 53 54 57 56 61 68 67 70 79 76 70 66 65 66 79 85 83 79 75 84 81 79 71 64 61 62 61 63 68 69 68
63 62 58 64 72 62 58 47 45 46 50 54 55 57 64 69 82 83 75 73 92 86 80 76 76 69 71 73 76 78 93 97 97 100 97 96 89 85 87 88 89 87 84
55 58 58 73 76 64 58 50 47 49 54 56 59 68 74 76 93 94 87 90 93 89 84 86 87 83 79 86 99 98 92 96 96 98 100 99 94 92 93 94 96 95 95
58 67 76 73 84 71 56 52 50 52 56 58 66 77 91 96 95 96 90 98 98 96 93 94 98 99 89 84 91 99 98 96 93 94 86 79 77 77 84 98 95 98 94
56 52 61 70 80 76 59 50 52 52 59 76 87 96 98 97 97 96 96 95 100 100 98 96 92 96 93 89 92 95 97 100 99 94 100 97 97 91 88 81 84 93 86
52 56 69 77 74 63 48 50 52 57 71 96 84 88 95 100 97 98 96 98 98 98 99 97 95 97 97 97 96 95 99 99 94 99 100 98 96 94 93 94 91 92 84
67 68 66 67 62 47 51 51 57 62 80 94 93 85 92 95 97 97 97 96 96 95 97 99 97 93 91 90 92 94 96 95 95 96 95 98 98 98 95 94 96 94 94
91 86 70 59 50 49 55 54 59 65 88 94 86 86 84 93 95 98 89 94 98 95 96 94 96 93 93 94 97 93 94 96 96 94 95 95 95 96 94 93 95 95 94
79 68 62 56 62 64 60 59 62 82 97 90 87 87 92 97 90 100 100 99 98 96 95 95 96 96 95 95 94 95 95 94 95 95 95 95 96 95 95 96 96 94 94
84 67 68 70 70 70 66 70 78 94 92 87 92 99 100 100 100 100 100 100 99 96 96 96 97 95 96 96 96 95 95 95 96 97 95 96 96 95 97 96 95 97 96
84 75 80 92 84 85 76 78 88 87 86 84 90 92 83 100 100 100 100 96 95 95 96 97 98 96 95 96 96 100 97 97 98 99 97 96 96 96 95 96 92 94 100
64 90 92 90 89 91 94 98 100 98 94 95 96 89 84 88 100 100 100 96 95 95 96 97 98 96 100 98 100 100 100 99 95 96 97 97 100 97 94 93 93 97 98
78 98 99 96 95 98 99 100 100 100 98 96 98 95 94 93 99 100 100 100 100 98 96 100 100 100 100 100 100 99 100 99 97 97 96 98 100 96 95 98 95 100 100
97 100 100 100 100 100 100 100 100 100 97 96 97 90 96 100 99 100 100 100 100 100 100 100 100 100 100 100 100 100 98 96 96 96 94 95 98 95 96 99 99 99 99
81 96 100 100 100 100 100 100 100 99 98 96 98 100 100 100 100 100 100 100 100 100 100 100 100 100 100 100 100 100 100 100 100 100 96 94 95 95 94 96 99 99 95
88 98 100 100 100 100 100 100 100 100 99 99 99 98 87 96 100 100 100 100 100 100 100 100 100 100 100 100 100 100 100 100 100 100 100 99 95 96 95 95 96 94 96
100 100 99 99 100 100 100 100 100 100 100 100 100 100 95 100 100 100 100 100 86 36 28 56 92 74 58 73 83 94 100 100 99 100 100 100 99 98 95 94 99 94 95
100 100 99 99 100 100 100 100 100 100 100 100 100 100 100 100 100 100 100 100 100 47 16 17 22 22 23 23 25 26 25 23 24 30 73 100 100 100 100 100 99 99 100
100 100 100 98 97 100 100 100 100 100 100 100 100 98 100 100 100 100 100 100 100 94 21 10 15 19 19 20 21 21 21 20 20 20 31 100 100 100 100 100 99 100 100
100 100 99 95 95 98 100 100 100 100 100 100 100 100 100 100 100 100 100 100 99 80 45 30 18 14 17 19 21 22 22 20 19 18 19 62 37 46 86 100 68 100 99
100 100 99 97 96 97 100 100 100 100 100 100 100 100 100 100 100 100 100 93 72 33 27 16 15 17 19 21 22 24 25 23 20 19 19 19 19 20 20 64 33 100 100

GFSGL_850_rhum_006.txt.gz
RH
73 73 69 66 64 67 64 68 76 74 59 66 71 69 81 86 79 76 78 75 79 74 77 91 96 98 98 97 98 90 74 61 63 60 56 53 49 50 57 68 85 73 67
75 76 69 64 64 67 70 76 72 78 83 85 78 75 69 67 63 67 66 69 66 81 89 84 74 72 68 73 76 80 67 62 59 56 57 55 47 46 47 47 50 61 61
76 74 70 66 66 70 68 65 70 66 64 62 58 53 51 51 52 52 54 59 65 66 57 56 67 68 67 66 59 65 65 68 69 69 63 57 54 50 47 46 47 49 52
70 70 68 72 67 63 61 61 60 59 54 50 48 49 51 53 54 58 58 59 58 56 50 43 56 66 70 77 90 83 75 70 75 72 68 63 58 54 50 45 42 43 46
74 77 60 64 64 61 63 62 59 51 47 46 48 51 53 55 59 59 63 70 73 71 65 58 55 63 68 68 74 93 92 79 61 58 62 68 69 62 58 66 70 67 63
68 63 67 76 65 67 71 65 60 49 49 47 52 54 57 64 73 71 74 80 83 85 80 68 69 76 72 76 82 89 80 71 69 74 78 82 81 77 75 78 80 77 79
48 52 66 86 81 76 78 73 64 56 49 51 54 60 65 74 78 81 89 90 85 77 76 86 88 91 89 92 96 94 94 94 92 94 96 91 81 71 70 76 76 84 91
39 48 75 78 73 78 77 82 82 55 50 52 61 68 72 77 79 78 80 85 84 75 82 84 83 88 93 93 96 92 88 86 87 89 90 85 96 92 91 88 90 91 83
39 55 70 73 76 63 80 79 68 50 53 60 72 75 78 76 75 89 96 92 92 79 78 88 95 85 80 86 88 82 73 72 73 77 88 93 96 92 87 87 86 88 95
61 66 85 81 82 83 84 71 57 52 59 67 67 70 72 70 93 98 97 97 93 87 88 83 79 93 94 90 96 97 94 93 98 88 90 86 81 85 92 98 96 97 78
78 83 86 92 79 78 68 53 52 55 60 69 77 75 71 90 99 97 96 100 99 94 92 91 92 98 97 95 93 88 88 91 86 83 78 78 77 80 80 80 85 95 96
71 89 85 81 70 70 58 54 54 57 65 75 71 78 90 89 90 88 99 100 90 98 98 96 95 95 91 93 94 96 96 93 90 90 92 94 94 94 93 93 89 95 90
72 79 79 72 70 63 58 56 59 64 72 68 77 79 82 80 83 97 90 83 93 97 96 96 97 96 94 94 96 94 96 95 97 97 95 96 94 95 92 92 92 94 94
81 82 80 71 65 66 65 65 68 72 71 78 84 79 81 79 80 89 91 99 94 94 95 96 97 95 96 96 95 94 96 96 94 97 96 95 96 97 99 99 97 98 98
86 85 72 73 77 78 78 76 81 84 85 88 81 88 88 77 87 100 100 100 99 97 96 96 95 95 94 95 94 98 97 96 98 94 96 97 98 96 94 96 96 92 96
82 67 76 83 81 80 89 88 85 86 91 84 91 92 86 86 95 100 100 100 100 96 96 96 95 95 95 97 95 96 95 95 96 97 96 97 97 95 94 93 97 97 93
76 72 87 88 96 97 94 89 93 95 93 92 96 89 94 97 100 100 100 100 97 96 96 96 97 93 95 99 98 98 98 96 96 97 97 94 94 94 97 89 90 90 93
81 88 84 91 95 94 98 100 99 93 92 91 94 95 100 99 86 97 100 97 100 96 96 96 96 96 96 98 96 98 99 96 93 95 96 97 95 97 96 94 93 95 99
90 98 91 85 99 99 100 99 100 98 95 91 94 97 97 77 87 96 97 98 92 97 89 94 94 98 99 98 96 94 99 99 96 94 97 98 98 96 94 94 93 95 95
86 92 93 92 100 100 100 100 100 99 94 94 90 96 94 86 82 96 96 99 92 74 80 87 99 97 96 92 93 95 99 97 97 97 95 97 99 98 96 94 93 92 92
93 94 91 100 100 100 100 100 100 100 98 94 94 93 95 93 93 95 97 98 96 43 35 46 74 60 42 50 58 69 80 72 73 77 94 94 98 96 97 94 93 95 94
99 92 94 99 98 99 100 100 100 100 99 95 96 94 93 97 99 92 97 100 100 87 32 21 26 27 25 26 28 28 24 23 24 30 69 89 96 95 96 98 94 93 96
94 100 100 95 93 94 99 100 100 100 100 100 97 94 96 95 95 95 96 100 100 87 65 19 15 19 20 21 22 22 21 20 20 20 44 68 92 84 98 97 100 99 93
92 100 99 96 92 92 94 100 100 100 100 100 98 97 94 96 95 96 95 97 99 80 59 49 32 20 17 19 21 22 23 22 20 19 23 47 59 57 76 86 86 100 97
86 96 99 94 92 89 92 98 100 100 100 97 97 98 98 99 98 99 98 100 93 67 39 29 17 17 19 21 22 23 26 26 23 20 20 21 24 25 39 58 49 88 92
87 100 100 94 95 96 95 95 100 100 100 100 100 100 99 97 97 100 100 97 88 69 47 46 42 33 30 28 26 25 27 28 26 22 20 19 18 18 18 22 29 48 54

GFSGL_850_rhum_009.txt.gz
RH
64 60 62 69 67 64 63 65 63 57 50 60 66 65 60 54 53 52 54 57 62 68 75 86 77 74 77 81 80 82 84 83 96 88 76 65 58 53 50 58 83 92 97
56 56 71 72 70 59 53 65 51 56 64 62 62 57 50 50 50 55 56 58 59 63 68 68 63 54 42 56 72 75 71 71 67 72 78 70 65 61 56 53 52 82 91
52 62 69 76 78 76 72 60 60 61 61 57 50 47 47 50 52 54 56 59 60 60 60 62 60 55 47 43 62 76 77 82 82 79 73 70 68 61 56 52 50 50 64
44 57 54 56 74 74 69 81 80 74 59 49 48 47 47 53 54 58 60 63 65 65 67 73 73 69 63 55 64 74 75 76 77 81 77 67 53 58 59 58 51 59 52
36 42 45 61 75 84 95 86 94 74 54 50 52 47 53 57 59 62 67 72 73 71 76 71 63 57 84 88 92 94 92 96 92 86 76 66 55 51 48 58 69 74 74
35 36 42 60 75 80 99 96 77 68 59 58 50 53 61 65 69 74 80 81 76 71 72 67 58 75 93 97 95 95 94 96 93 90 80 82 82 78 73 63 70 77 76
36 42 61 65 63 70 71 94 77 82 65 54 55 60 65 71 80 92 79 72 82 84 81 74 70 80 83 84 88 93 94 95 96 97 97 93 87 74 68 78 78 82 85
39 45 52 63 63 68 87 98 88 67 56 56 60 63 67 78 72 64 77 86 90 94 83 76 80 88 88 87 84 84 83 79 75 76 71 67 70 70 77 83 93 97 95
46 53 57 69 75 92 90 98 69 60 57 59 60 61 71 72 68 82 88 88 92 86 84 81 83 84 84 90 89 90 88 83 74 81 84 93 98 96 93 96 92 87 75
51 58 63 72 83 79 73 75 56 58 56 60 62 70 69 68 83 96 97 98 98 92 86 83 85 97 97 96 97 94 89 86 92 90 87 83 72 75 81 77 80 97 100
57 62 64 69 78 75 76 65 58 56 59 63 68 69 67 60 74 84 95 100 100 100 94 98 93 92 94 96 97 99 95 95 96 91 82 79 81 83 82 81 79 77 82
65 70 78 77 79 78 76 65 62 62 64 66 69 63 63 65 62 60 78 85 100 98 95 94 96 96 93 93 97 97 95 97 96 96 96 95 94 95 96 97 97 95 96
70 74 82 75 75 71 70 69 70 70 73 75 70 74 70 76 66 72 84 88 93 94 95 98 98 95 97 96 97 96 96 96 97 98 97 96 96 95 94 96 95 94 94
68 70 76 78 73 78 79 75 76 81 79 77 82 76 83 81 73 88 94 92 92 90 94 95 96 97 96 100 94 95 95 95 96 95 94 96 96 96 96 96 90 95 93
83 78 73 60 67 73 81 86 89 86 81 85 85 91 85 83 83 100 100 99 98 97 95 95 93 92 94 95 95 96 95 93 93 95 95 94 94 94 96 96 99 97 98
94 77 68 64 72 90 100 98 90 88 83 86 91 94 89 86 95 100 100 100 100 94 94 95 96 92 92 96 94 95 96 97 96 98 99 98 94 97 97 94 96 95 96
92 86 79 75 78 91 96 100 96 79 91 90 92 100 95 90 100 83 100 94 78 88 91 95 96 100 96 96 97 98 100 99 97 96 96 98 98 99 96 89 92 86 86
98 94 87 96 96 84 94 100 100 95 92 91 94 99 94 99 96 71 100 87 58 43 64 85 95 98 96 95 96 99 99 98 95 97 97 97 98 98 93 90 92 94 95
100 92 97 100 99 92 100 100 100 97 97 94 95 96 98 100 89 72 83 86 88 39 34 57 84 88 83 82 86 93 95 94 92 95 97 97 97 98 99 97 93 95 92
100 96 98 100 99 89 100 100 100 100 100 97 94 95 97 99 93 86 82 84 89 71 22 25 47 46 42 50 53 60 53 40 54 84 96 97 94 98 100 100 99 97 93
100 100 100 100 97 91 100 98 100 100 100 98 95 97 96 94 93 93 96 79 83 81 62 18 19 22 22 26 29 26 23 22 24 47 86 93 92 94 100 100 97 98 96
100 100 100 99 95 97 98 99 100 100 97 96 96 95 97 94 95 99 98 91 80 75 73 50 18 16 18 20 21 22 22 21 20 23 53 71 74 92 99 95 100 92 92
82 74 88 100 100 95 95 99 100 100 99 98 99 94 94 95 96 98 99 93 86 80 58 48 40 31 22 20 20 22 24 24 22 20 23 46 49 55 88 90 96 99 89
76 76 76 98 96 92 92 94 95 99 100 99 95 94 98 97 96 96 97 97 94 81 61 40 35 20 18 20 23 24 24 27 27 23 21 24 27 30 39 61 84 100 84
98 98 92 99 97 93 94 94 96 98 100 99 96 98 97 98 98 97 98 96 97 93 73 50 48 47 38 33 31 27 26 28 29 26 23 23 20 21 20 27 33 49 48
98 95 84 90 96 95 93 91 92 98 100 100 100 100 100 100 98 97 99 97 96 95 90 78 59 62 85 94 95 90 54 34 37 33 22 20 18 17 18 18 20 21 21

GFSGL_850_rhum_012.txt.gz
RH
49 46 45 52 54 63 72 71 70 70 65 53 55 58 53 49 48 49 51 53 55 58 65 68 68 65 63 60 55 44 58 78 94 89 78 62 60 68 62 53 53 62 66
42 48 58 67 70 68 76 83 81 89 68 77 78 56 48 47 47 47 50 53 56 58 59 61 63 61 55 59 59 53 44 56 79 83 88 81 72 71 66 64 58 52 62
35 35 38 36 37 53 73 83 85 84 87 95 58 50 49 47 48 54 55 59 62 67 70 74 72 69 66 64 63 61 55 46 69 83 82 87 81 74 64 59 62 57 56
34 34 33 28 38 79 76 73 80 80 73 62 53 52 52 52 56 60 64 67 71 77 81 78 68 67 61 60 76 89 90 95 84 80 91 89 83 71 61 53 43 53 58
34 31 29 29 43 50 52 57 90 74 73 57 63 71 54 56 65 69 73 79 82 71 68 76 78 75 63 83 100 98 95 97 98 99 98 96 83 69 60 56 60 60 53
31 31 35 37 48 50 57 83 93 76 69 87 80 55 58 67 71 80 82 67 67 77 82 86 82 71 69 83 87 81 99 97 94 98 98 97 90 79 75 73 72 62 52
38 40 41 46 50 53 70 85 95 100 91 69 58 61 66 73 80 70 68 76 84 84 84 85 83 78 76 79 77 77 77 79 89 91 95 98 93 84 83 77 72 70 80
41 43 47 50 56 57 85 81 86 85 80 60 65 63 68 72 65 63 71 81 85 90 91 84 79 87 90 93 95 98 91 90 87 92 90 81 75 74 74 71 77 84 82
44 49 54 61 62 65 75 81 82 74 64 62 62 68 71 67 61 61 64 60 69 70 68 74 99 97 97 97 93 93 88 80 91 97 97 94 90 94 91 93 93 98 97
53 58 65 72 75 78 76 76 75 69 66 67 73 74 72 64 58 52 64 86 82 86 87 86 89 98 97 96 96 97 94 84 84 73 75 87 93 95 88 77 82 91 86
62 70 70 76 81 79 80 84 80 76 70 72 75 75 70 61 53 48 62 100 100 97 93 92 91 94 98 94 95 94 95 97 96 96 92 88 80 78 80 79 75 75 75
72 73 70 77 78 76 74 74 71 72 75 79 79 72 68 59 51 51 73 100 100 100 95 94 98 96 100 96 95 96 93 95 96 96 97 96 96 96 96 96 95 95 93
78 79 80 76 80 80 82 84 82 80 83 84 74 74 70 64 59 53 78 90 95 100 94 97 94 96 96 95 94 96 95 95 95 94 95 96 96 97 97 96 97 97 95
92 90 90 75 68 67 77 85 86 90 89 80 76 77 75 74 69 68 94 94 97 95 92 94 94 88 95 96 96 96 96 95 95 95 95 96 95 95 95 96 96 92 96
98 98 98 75 71 66 80 98 98 97 92 79 81 83 82 82 83 98 100 100 100 95 94 93 81 73 77 82 93 97 95 95 96 97 96 95 95 96 97 97 97 100 100
96 98 98 93 77 78 89 100 99 100 86 86 87 87 88 91 93 100 100 92 66 60 73 86 75 86 85 89 92 92 93 94 96 96 96 96 96 98 97 96 96 93 95
100 99 99 96 99 100 93 95 98 89 89 92 87 87 94 95 98 87 78 80 66 28 42 69 80 82 85 88 94 99 99 97 98 97 97 97 97 97 96 92 97 92 100
100 98 98 99 100 100 96 95 100 97 94 90 89 90 93 96 98 91 71 70 70 29 21 48 71 67 60 72 78 88 87 81 88 96 97 97 97 96 94 95 93 94 95
97 100 100 100 99 100 97 89 96 100 96 93 92 90 91 95 98 94 89 78 69 75 27 19 38 41 36 46 48 52 43 36 65 95 96 96 96 96 96 96 99 97 92
100 98 100 100 100 100 96 94 99 100 98 96 93 93 94 93 98 95 95 94 86 73 73 22 16 21 23 25 29 25 22 21 26 75 96 96 96 97 98 96 95 96 94
100 100 99 99 99 99 97 96 95 100 99 97 95 98 95 92 94 95 95 98 94 79 64 65 45 19 17 19 21 22 22 21 20 34 64 76 82 94 98 100 100 94 92
100 99 100 100 100 100 98 98 96 96 95 94 96 98 94 92 94 95 95 96 96 93 75 53 38 31 31 27 28 25 24 25 24 20 24 47 56 67 91 95 96 95 88
100 98 77 70 82 96 98 97 94 97 96 98 98 96 97 99 96 93 92 93 92 92 92 67 40 37 24 19 21 30 37 39 31 26 22 22 28 34 44 71 76 92 87
100 88 85 90 86 87 94 95 95 94 95 97 96 97 97 96 95 94 94 94 94 93 94 85 64 52 52 52 36 30 28 30 30 29 25 22 22 21 21 29 46 64 57
100 99 98 98 100 98 93 94 96 97 96 96 99 100 99 96 95 95 91 92 91 92 94 91 92 73 64 85 94 94 94 62 39 39 32 22 19 18 18 18 21 23 23
100 100 100 98 98 97 94 92 92 94 95 99 100 100 100 100 94 91 94 92 93 92 94 94 95 96 89 91 94 94 94 94 92 93 93 83 26 16 16 18 23 23 23

GFSGL_850_rhum_015.txt.gz
RH
39 37 35 39 49 37 35 60 75 78 79 81 83 89 86 53 48 48 44 44 52 56 60 66 64 64 67 68 66 63 58 64 62 52 58 73 82 71 57 51 59 62 56
38 36 35 34 28 23 34 72 79 74 69 77 80 94 57 49 49 46 49 54 58 65 67 72 76 80 80 75 65 55 54 57 67 65 52 69 87 80 78 72 54 55 63
36 34 32 30 24 28 35 39 41 51 73 86 96 84 52 50 59 53 55 60 67 75 80 87 82 70 69 68 62 57 56 75 95 99 78 60 82 81 71 67 65 56 47
33 30 30 31 38 42 44 47 41 79 99 80 74 61 56 74 58 58 66 71 77 84 78 67 75 84 82 75 66 71 96 99 96 94 95 93 92 92 85 69 58 52 49
31 32 35 39 45 47 51 49 62 99 100 90 79 62 79 65 61 69 73 79 75 67 74 81 88 88 96 93 94 97 95 90 92 96 92 90 93 95 86 73 66 57 49
34 37 40 44 49 53 59 53 74 84 93 92 83 72 66 66 68 69 70 67 74 79 84 86 89 80 73 90 93 100 100 99 96 96 92 94 96 97 92 83 78 69 65
40 42 46 51 55 62 64 66 76 77 82 88 82 72 69 69 68 69 66 63 64 68 74 78 75 81 90 91 86 94 97 97 95 96 93 90 90 95 99 93 84 80 76
41 49 54 56 64 67 69 76 82 81 80 76 74 70 73 71 71 64 57 52 52 63 70 77 87 96 100 100 96 94 89 84 89 94 97 92 87 83 80 75 74 76 75
49 53 59 68 71 72 78 79 79 76 73 72 78 83 73 74 66 58 50 51 58 65 75 83 97 97 94 97 95 96 97 85 82 81 77 90 97 95 94 95 98 99 100
52 64 73 75 71 79 81 78 79 87 93 95 84 76 78 70 63 50 47 56 68 80 82 83 88 90 95 94 96 98 92 91 94 92 88 86 76 84 94 97 90 88 91
66 70 78 76 76 75 74 77 77 76 84 80 81 82 76 72 62 48 48 63 93 99 91 88 92 100 96 94 96 97 98 94 94 94 96 97 95 85 75 72 77 75 69
64 65 86 87 86 79 81 81 81 80 83 86 87 80 80 74 65 55 51 75 100 100 93 91 100 100 100 95 95 97 95 96 97 96 95 95 96 97 98 98 98 98 94
59 76 94 97 95 72 76 83 86 85 89 94 85 81 80 75 74 62 54 73 80 86 85 95 93 82 72 85 96 96 94 95 95 93 94 95 96 96 96 96 95 94 93
76 88 94 99 97 77 73 84 91 95 98 96 84 83 82 79 78 65 64 74 67 44 57 87 84 65 73 87 96 93 94 96 98 98 96 96 95 96 96 96 96 95 94
92 96 92 98 96 86 71 95 100 99 99 96 84 86 85 83 82 87 86 71 73 32 28 50 44 52 59 70 86 88 86 94 93 96 94 95 96 96 96 96 96 97 96
100 99 97 98 96 96 96 96 100 100 100 92 92 88 86 89 86 90 73 68 72 38 19 28 42 53 57 68 75 80 83 86 95 96 97 96 96 95 95 95 96 96 96
99 99 96 99 97 97 99 98 98 100 100 97 93 88 88 92 91 91 87 73 70 65 15 21 37 35 38 57 66 77 72 74 93 97 96 97 96 96 95 95 96 97 98
99 98 94 92 92 94 99 98 96 96 98 95 94 90 88 92 92 91 92 88 66 68 58 16 20 22 23 34 38 37 25 35 71 95 96 96 97 97 95 95 94 94 96
99 98 93 91 95 98 98 96 96 98 98 97 96 92 89 94 91 92 94 94 82 66 68 52 19 16 19 21 24 24 22 22 32 86 96 95 97 98 97 96 96 96 95
99 96 96 96 99 97 95 93 96 96 97 97 95 94 94 95 90 92 94 92 90 76 67 56 59 44 23 18 20 22 24 22 20 33 62 77 86 93 96 96 96 92 92
100 99 99 100 100 95 93 94 99 98 97 98 94 98 94 96 89 92 94 92 90 88 78 64 44 33 26 32 36 39 34 27 26 21 23 44 54 56 87 95 95 96 92
99 97 99 100 100 100 90 94 98 96 98 98 91 97 95 93 94 96 92 89 88 84 85 75 48 43 42 28 21 22 37 37 37 31 24 22 28 36 42 72 73 84 90
100 100 99 100 83 75 84 91 94 95 95 98 93 96 94 95 94 98 90 86 86 87 88 88 77 68 54 57 58 45 34 38 38 34 30 24 24 22 21 25 35 44 55
99 99 98 99 96 97 96 90 94 94 93 94 94 96 96 96 96 93 85 82 79 80 85 88 88 89 78 69 80 92 93 93 66 42 42 31 22 19 18 19 21 24 25
100 100 99 100 100 100 100 100 100 98 94 91 92 94 98 99 92 90 88 83 78 77 82 86 89 90 89 90 88 92 93 92 90 86 89 92 74 19 16 16 20 22 22
95 95 99 98 99 100 100 100 98 99 97 90 93 95 99 96 90 86 82 78 78 76 82 87 89 90 91 92 91 91 92 92 91 91 93 94 94 70 33 20 24 31 34

GFSGL_850_rhum_021.txt.gz
RH
39 38 35 33 31 28 24 30 38 42 39 34 43 75 86 85 96 91 81 55 62 60 58 63 70 74 83 98 98 93 87 84 80 70 72 73 79 84 84 85 75 79 82
39 35 32 32 31 26 35 47 51 52 46 41 48 74 80 85 97 78 60 66 70 65 64 69 76 90 90 98 96 94 92 89 89 80 74 77 86 87 88 91 86 81 73
35 33 33 34 32 38 48 53 53 52 50 52 68 83 99 98 96 60 65 76 69 69 72 74 71 85 94 94 95 94 94 95 93 90 87 86 83 82 97 91 88 88 82
33 33 37 38 41 45 52 55 56 57 57 61 73 96 97 94 94 75 78 71 70 70 67 63 51 51 81 96 99 98 96 100 100 96 92 87 87 85 91 92 88 81 78
32 38 39 41 43 50 55 57 58 63 67 71 73 78 88 99 97 91 72 74 68 67 53 39 40 50 57 77 100 100 100 100 98 96 88 81 80 81 85 85 96 99 92
38 40 41 43 44 54 56 59 61 66 71 85 83 82 85 83 78 77 74 70 67 50 37 41 52 61 98 98 81 96 100 100 100 98 92 94 92 90 91 89 100 99 87
40 36 40 34 47 55 60 54 63 68 70 79 85 79 87 83 84 77 72 63 50 37 44 53 86 100 100 100 100 99 98 94 96 100 100 94 89 87 94 99 97 100 100
33 30 28 40 53 55 55 65 72 69 70 78 80 86 89 91 81 78 65 55 41 42 50 72 100 100 100 100 98 100 100 99 98 100 100 100 98 99 98 99 98 98 99
24 26 38 49 48 47 73 81 81 70 76 82 80 85 92 82 84 72 61 48 42 46 55 98 100 100 100 99 100 100 100 99 98 97 95 96 91 92 97 100 100 100 96
25 34 40 42 40 48 82 91 83 71 79 81 85 93 87 88 80 67 59 53 46 52 74 61 70 91 100 100 100 100 100 100 100 100 100 100 98 96 96 98 100 100 95
35 37 39 38 41 57 82 89 82 70 77 81 86 88 90 87 75 69 64 60 62 72 59 30 48 64 87 92 95 100 98 97 100 100 100 100 100 100 98 97 100 100 93
36 38 38 39 48 70 90 87 88 75 79 86 88 91 92 87 76 73 69 64 48 61 56 23 19 39 39 47 72 82 85 83 96 100 100 100 100 100 100 99 95 95 99
35 36 38 53 61 91 97 94 94 80 87 93 94 95 92 87 82 79 75 71 49 54 58 24 18 25 29 38 52 71 75 75 89 100 99 99 97 96 96 97 96 93 98
38 41 57 77 90 99 92 97 94 77 81 94 94 96 93 88 86 84 81 70 63 51 56 35 20 23 24 31 37 48 46 67 92 96 95 96 97 96 96 96 97 98 98
42 55 74 80 97 97 97 98 94 89 91 96 93 95 94 90 90 89 85 78 75 58 51 52 29 20 20 24 25 22 22 49 84 92 94 95 95 93 95 96 96 96 97
54 77 80 86 88 90 93 95 94 90 93 93 81 90 94 93 93 91 87 78 80 71 50 55 50 36 23 22 23 23 21 20 50 87 93 95 94 94 93 99 96 96 96
74 83 88 87 92 93 94 96 96 93 91 92 90 90 94 94 95 93 91 86 84 78 59 48 56 54 44 29 23 23 24 23 24 70 91 92 94 94 96 100 98 100 100
81 88 90 88 88 97 97 99 94 95 98 92 86 95 90 95 98 98 96 93 87 81 77 60 47 46 50 48 45 44 38 32 27 22 31 54 73 90 94 95 100 95 100
87 93 95 100 94 92 96 100 92 88 96 88 89 97 92 94 95 99 98 94 88 82 82 76 63 54 44 38 32 33 47 59 54 42 28 28 36 44 58 88 94 94 92
94 96 100 96 97 95 97 98 95 93 93 93 96 92 90 93 92 90 95 92 84 79 78 75 72 68 56 54 51 43 29 27 35 41 40 36 29 30 34 48 72 73 98
100 98 95 95 97 97 96 98 100 91 89 89 83 89 92 93 92 90 90 90 82 79 74 71 70 70 69 70 66 62 66 56 45 54 45 36 36 30 25 29 53 52 74
99 97 97 93 90 92 97 99 99 80 78 84 85 84 94 97 96 89 86 83 78 81 78 72 69 71 72 75 77 73 74 84 81 84 65 47 43 34 24 22 25 31 38
99 92 91 90 89 95 97 98 99 95 88 83 86 91 92 88 86 89 87 81 82 82 81 72 67 69 71 74 78 79 79 84 88 89 85 77 81 79 41 21 21 21 22
98 91 91 88 88 94 98 96 97 96 94 98 97 95 96 95 92 83 85 86 86 84 80 72 66 66 71 75 78 79 82 84 86 88 86 87 90 89 78 41 24 29 30
96 94 89 89 92 98 98 98 97 98 98 98 97 97 97 97 96 95 85 82 88 89 85 76 70 67 71 77 79 79 81 82 84 86 86 88 90 90 84 70 61 41 35
95 100 95 97 95 97 98 97 98 98 97 96 96 95 96 96 95 96 96 96 88 91 92 79 70 67 73 80 83 79 80 82 83 84 86 86 86 85 82 74 66 66 61

GFSGL_850_rhum_024.txt.gz
RH
44 39 36 42 40 47 50 50 56 63 64 66 72 76 77 76 80 89 92 92 83 73 80 84 79 77 69 64 64 64 62 60 60 58 59 60 65 67 71 82 79 73 67
53 42 44 33 46 49 49 56 64 70 70 70 80 82 81 87 99 99 97 78 78 78 81 80 80 74 69 69 66 63 62 65 78 73 69 71 77 74 78 79 71 75 71
44 42 41 45 49 48 54 64 71 74 70 77 80 81 83 97 98 88 95 90 85 87 89 89 82 79 76 70 71 69 71 81 85 86 83 82 80 79 77 80 84 86 73
43 39 39 49 51 53 60 68 74 76 74 78 82 87 93 95 100 98 92 96 93 90 91 85 81 74 75 83 82 79 83 88 89 87 86 83 84 72 71 80 79 80 87
42 40 46 52 50 57 67 76 76 78 80 81 86 93 95 100 92 92 97 93 88 81 74 72 70 76 58 86 100 99 99 96 96 88 89 86 81 80 87 80 80 72 75
37 45 48 34 48 60 72 75 71 78 78 81 84 97 97 97 82 78 83 78 82 74 70 68 74 83 88 94 98 98 100 100 98 97 96 87 85 80 79 77 84 85 84
41 42 41 46 51 63 66 67 70 76 84 84 92 96 93 100 85 87 74 72 78 76 76 77 79 80 90 95 96 94 97 96 96 98 94 96 97 88 93 85 82 84 92
39 39 47 53 60 64 67 69 76 80 81 82 90 92 95 93 87 76 75 70 82 86 86 88 87 84 90 97 100 99 93 86 76 91 96 92 93 94 96 97 96 89 90
39 43 50 56 66 64 64 72 80 82 81 85 90 94 97 97 82 81 71 68 98 96 94 93 94 89 100 99 100 98 90 81 95 99 96 86 84 84 85 100 97 85 89
27 26 31 62 68 66 69 79 85 85 84 86 89 98 94 94 85 81 67 69 96 100 96 94 88 70 48 96 100 100 100 99 98 100 100 94 90 93 94 93 100 89 84
21 27 44 66 71 73 79 87 87 86 89 97 72 88 95 88 90 82 68 65 91 91 97 96 92 36 22 33 42 100 96 94 100 100 100 97 94 97 94 95 95 96 90
26 32 63 69 76 82 88 90 90 93 97 100 91 86 100 98 88 83 72 67 65 62 89 100 64 23 21 24 43 49 50 82 100 98 100 100 100 100 100 99 99 100 100
32 42 77 86 89 86 90 94 99 97 97 100 100 100 98 97 100 98 77 72 65 62 58 52 48 28 21 49 62 25 68 100 100 100 100 100 100 100 98 96 95 96 98
37 70 82 90 88 91 92 100 100 100 100 99 98 94 93 96 100 100 100 100 100 97 100 66 52 51 51 56 88 93 89 60 99 100 100 100 100 100 100 97 95 96 95
56 78 83 95 94 90 92 100 100 100 99 99 97 98 100 99 99 100 93 96 100 90 71 63 100 97 92 85 89 93 95 80 88 100 100 100 100 100 100 99 99 94 97
49 71 96 97 96 100 100 100 97 91 90 85 83 83 79 81 91 88 86 86 81 73 76 100 100 100 100 95 94 93 93 90 44 80 100 100 100 100 100 100 100 100 100
54 66 94 99 100 100 100 100 100 98 94 93 95 90 81 78 92 90 89 90 87 80 96 100 100 100 100 97 92 92 94 89 57 64 90 100 100 100 100 100 100 100 100
62 76 94 100 100 96 99 94 96 99 98 100 100 98 94 84 83 89 94 96 100 100 96 100 100 100 100 98 92 90 68 54 85 61 77 80 100 100 100 100 100 100 100
77 98 100 98 99 96 94 94 92 92 98 100 100 98 98 91 91 88 94 99 100 100 100 100 100 100 100 100 100 93 58 57 39 47 78 74 93 99 100 100 100 100 99
100 100 100 100 100 93 100 94 92 93 97 99 100 100 98 96 99 100 100 100 100 100 100 100 100 100 100 100 100 100 98 100 100 85 70 58 96 100 99 100 100 100 94
100 100 100 99 100 100 91 90 91 93 98 100 100 100 99 100 100 99 98 96 99 100 100 100 100 100 100 100 100 100 100 100 100 89 82 63 52 99 100 88 98 99 96
98 96 100 99 98 96 88 89 95 95 98 100 100 100 100 96 92 99 100 100 100 100 100 100 100 100 100 98 98 100 100 100 98 100 96 79 78 100 100 100 83 87 95
95 94 96 93 95 95 88 94 93 93 96 96 99 98 99 100 97 94 96 95 98 98 100 80 76 79 80 66 67 73 78 99 96 85 85 83 94 100 100 100 100 91 54
97 85 91 91 89 93 92 94 94 100 99 98 98 96 99 100 100 97 95 95 95 82 80 84 82 75 70 69 65 69 72 72 76 78 81 82 85 99 100 99 100 84 90
86 92 95 91 93 93 92 92 92 95 97 98 99 100 100 100 100 100 100 99 96 96 93 81 86 82 71 72 69 70 74 72 74 76 79 82 82 83 84 82 79 100 94
97 99 96 91 94 95 94 91 91 92 92 93 94 96 98 100 100 100 100 100 100 97 96 96 86 88 88 77 72 73 77 74 72 75 78 82 82 80 81 83 77 84 100

GFSGL_850_rhum_027.txt.gz
RH
57 56 54 56 47 49 51 49 50 56 61 62 60 63 65 63 64 75 81 84 93 94 82 76 89 88 85 80 70 53 54 53 53 53 51 59 72 74 74 77 73 80 71
68 61 59 48 44 47 48 46 52 60 65 65 61 64 63 62 74 80 92 95 96 96 90 88 83 81 80 64 58 57 57 57 57 58 62 75 81 82 81 76 78 74 73
70 65 46 43 45 46 49 48 55 60 64 65 63 65 65 69 71 86 84 97 92 92 92 90 83 76 67 64 68 71 67 63 67 82 84 87 79 75 78 79 77 70 76
63 51 38 39 46 52 50 50 56 64 67 65 66 66 71 77 79 86 87 92 97 92 89 80 70 69 69 82 80 82 77 81 86 88 83 87 82 84 85 80 89 84 76
60 45 38 42 52 53 50 56 63 69 67 68 65 65 80 84 85 78 91 89 87 82 73 65 63 66 68 73 87 92 95 94 92 92 91 87 90 83 76 74 82 75 73
53 45 43 48 54 50 51 63 67 61 62 65 66 69 85 86 84 75 82 83 80 67 65 66 67 69 71 80 91 100 96 98 100 97 91 84 77 85 96 97 90 85 73
46 43 47 52 53 51 53 54 55 58 66 69 70 77 90 94 83 75 83 69 78 74 75 75 76 68 77 83 92 93 93 90 93 94 98 95 97 90 92 94 89 94 88
44 45 49 47 46 52 54 55 55 61 66 68 70 83 89 93 92 75 78 68 82 83 86 84 79 80 79 78 62 96 88 80 76 82 90 94 92 92 92 92 93 86 82
49 47 43 44 55 57 54 54 58 64 68 74 71 84 94 97 96 78 79 75 92 92 91 84 88 86 86 38 34 97 95 85 79 83 89 89 84 79 77 98 86 95 89
47 46 46 51 55 56 58 61 67 71 70 72 72 81 90 97 94 88 80 78 93 100 93 87 87 88 69 22 23 63 100 95 89 93 95 96 96 96 97 96 94 96 97
51 21 20 50 55 61 66 71 74 74 79 88 88 88 95 94 94 97 88 80 88 96 97 93 91 89 42 24 21 41 90 42 81 100 98 97 96 98 95 96 98 97 95
21 26 56 58 66 69 74 79 80 79 86 95 96 93 98 94 91 89 78 82 73 70 89 100 98 56 43 30 35 48 40 72 99 98 100 99 98 91 96 99 96 96 90
33 62 68 70 73 76 78 80 81 88 94 99 98 96 100 91 96 99 86 90 81 67 75 76 47 46 51 57 88 83 82 98 96 98 99 100 94 94 95 97 90 95 97
76 75 76 76 78 84 83 74 82 91 94 98 98 99 100 98 97 98 95 91 100 95 98 98 63 80 87 91 89 94 97 98 94 94 96 100 94 96 92 95 91 92 95
67 72 78 78 85 87 81 81 85 92 93 98 99 98 92 91 93 93 96 97 99 100 82 65 100 98 98 94 92 94 95 96 92 93 98 96 96 99 100 97 96 92 94
43 47 66 85 88 92 92 94 92 95 92 89 84 83 80 83 81 79 91 90 86 84 78 100 98 97 100 97 94 92 95 96 100 100 99 98 97 96 99 98 100 100 99
41 48 62 95 92 93 97 96 92 93 98 95 85 84 90 93 94 85 83 88 93 94 89 100 99 100 100 97 92 90 91 98 92 100 100 100 100 100 96 98 99 100 100
54 78 94 96 99 99 95 94 94 100 95 87 93 96 90 94 94 92 91 91 100 100 100 100 99 98 98 96 93 94 98 100 100 100 100 100 98 100 99 94 94 99 98
90 97 97 100 98 98 98 98 99 96 88 87 91 98 90 91 96 96 98 96 99 96 96 98 96 97 97 96 98 100 100 100 100 100 100 100 100 96 100 100 98 94 93
89 92 91 94 95 96 94 94 92 93 93 89 92 99 91 95 95 93 94 99 95 95 98 100 94 94 97 98 100 100 100 98 96 97 99 100 100 100 94 100 100 98 92
96 93 96 98 98 97 95 94 87 90 90 89 89 97 94 99 97 92 92 91 92 90 92 96 99 95 98 99 100 100 100 100 100 100 100 100 100 100 99 98 100 100 96
98 94 96 99 100 91 90 97 94 85 87 89 88 96 92 98 100 100 97 94 96 94 92 95 97 99 100 100 100 100 100 100 100 100 100 100 100 100 100 100 98 100 100
100 100 100 100 97 88 90 96 96 87 87 87 92 94 97 96 96 98 98 99 100 98 96 95 94 98 100 100 100 92 96 100 100 100 97 97 100 100 100 100 100 100 100
98 100 99 98 98 87 87 92 95 95 92 90 93 94 96 96 96 97 97 98 98 97 97 96 96 91 87 92 98 83 70 73 76 70 62 72 91 100 100 100 100 99 100
98 97 98 97 94 84 86 91 96 95 94 94 95 96 95 94 93 93 93 95 96 98 98 98 97 96 96 89 88 78 70 64 70 70 65 67 74 80 81 100 100 100 100
96 99 97 96 94 95 92 95 96 97 98 96 94 95 95 91 90 91 91 92 92 89 91 96 97 97 96 96 96 93 85 73 74 73 69 72 82 100 100 100 100 99 100

GFSGL_850_rhum_030.txt.gz
RH
64 62 53 58 56 55 56 53 52 50 55 61 64 64 61 64 62 65 71 59 80 80 74 83 92 98 86 89 81 72 64 64 66 64 61 60 65 71 58 66 63 60 58
63 63 62 58 63 49 48 50 48 49 56 63 66 64 62 64 65 70 73 87 68 90 98 98 95 84 78 79 71 65 66 64 66 72 75 78 81 68 77 76 76 72 79
62 61 64 61 50 47 48 49 50 51 57 62 66 65 65 66 70 74 83 80 82 94 92 85 80 81 74 69 69 71 61 70 80 83 82 74 77 74 74 75 73 79 80
62 67 56 57 56 44 49 53 50 52 57 65 68 65 67 67 80 75 84 84 86 90 85 81 79 66 66 67 67 62 67 80 79 83 79 78 75 78 79 79 85 81 81
65 65 55 57 42 59 54 52 52 58 65 69 65 66 65 69 86 80 82 66 80 83 76 70 65 64 65 68 70 76 87 90 86 80 81 78 80 81 80 93 92 91 70
68 62 51 65 51 51 54 50 51 61 64 60 64 66 68 76 79 79 76 67 70 59 72 70 71 72 68 69 80 87 93 86 82 91 90 95 91 97 96 98 86 80 92
66 59 66 52 52 55 51 53 53 54 56 59 66 70 71 80 81 85 83 64 62 66 80 80 80 80 77 80 77 70 37 70 89 84 93 98 98 98 88 77 75 84 82
67 57 60 50 52 49 50 44 51 54 56 61 68 69 75 92 87 87 86 77 68 69 87 85 88 84 84 70 64 35 23 48 83 84 86 86 89 74 78 84 76 85 80
65 61 65 64 49 52 49 55 57 63 64 66 70 73 73 92 89 88 92 86 78 70 78 87 90 88 84 82 67 27 22 32 75 83 61 65 80 87 93 98 90 95 88
66 74 64 78 45 39 53 62 74 72 75 72 72 78 78 89 92 97 94 85 81 74 82 90 86 90 92 82 52 28 25 36 31 47 73 83 85 96 94 97 97 96 99
87 80 61 69 42 64 78 81 82 83 78 75 80 82 78 87 84 95 88 83 81 82 66 64 94 94 85 57 44 38 44 55 67 78 86 84 91 90 86 87 92 98 96
82 83 64 43 52 85 86 81 81 73 79 90 96 94 89 90 86 82 82 85 83 78 66 63 76 71 51 49 54 62 79 80 88 86 82 87 89 88 89 90 90 89 93
74 42 35 48 79 84 81 79 76 80 83 75 88 96 92 91 88 96 97 98 90 80 72 65 70 62 63 68 74 89 95 88 96 81 86 88 87 92 90 91 88 87 90
46 36 66 83 83 77 62 78 84 79 82 86 81 87 88 95 96 92 94 94 96 86 82 86 80 71 90 94 94 95 93 90 97 97 91 82 89 87 88 91 91 91 88
50 48 51 53 48 56 83 84 85 85 91 90 85 88 93 98 96 96 90 82 98 98 93 91 83 77 100 88 89 90 89 87 92 96 84 93 94 90 84 88 94 90 92
40 40 44 47 57 70 91 93 86 84 86 86 92 94 90 88 87 82 82 80 88 100 97 87 82 82 93 90 86 91 89 88 94 88 91 94 94 94 86 89 96 89 91
44 47 52 68 80 89 88 90 93 85 88 85 96 96 96 96 95 91 95 95 83 89 89 85 84 90 91 90 85 93 92 93 90 91 97 94 96 95 93 89 86 95 86
56 65 84 92 95 89 83 86 90 88 86 83 79 85 89 97 97 88 92 99 97 99 99 97 94 92 87 90 85 98 97 89 91 95 92 95 99 99 95 94 85 96 88
84 87 88 93 90 87 91 88 90 85 83 82 95 84 85 96 97 93 97 100 98 97 94 91 90 92 96 99 92 84 90 98 94 88 91 95 100 99 96 96 94 85 92
84 82 86 86 89 91 97 97 98 98 98 88 81 89 92 96 97 87 90 93 95 90 89 90 96 91 96 99 99 97 95 98 96 96 96 96 98 98 95 97 94 97 86
95 93 88 94 96 84 88 92 92 96 100 98 94 80 88 96 97 93 91 90 94 95 91 90 90 90 90 91 95 96 100 100 100 97 94 90 95 87 94 96 96 97 92
94 90 86 92 100 99 90 89 82 87 94 98 95 86 89 96 97 96 95 94 91 96 95 98 95 93 94 95 93 97 100 100 100 100 92 79 77 82 98 98 95 95 98
98 100 98 95 88 92 100 90 85 91 91 94 96 93 94 96 96 97 96 96 96 96 96 96 96 96 96 95 95 94 97 100 100 99 90 77 64 71 99 90 96 96 98
79 82 92 92 93 98 96 92 87 91 86 93 96 96 94 96 96 97 97 97 97 97 98 97 97 97 97 97 96 95 93 96 99 89 80 75 62 65 81 95 94 97 98
78 79 88 90 96 98 96 98 95 95 93 97 98 97 97 96 96 96 96 95 92 92 91 90 92 96 97 97 97 96 96 95 94 79 70 72 60 62 67 76 78 85 93
96 99 98 98 95 91 100 98 98 98 99 100 100 98 97 96 87 64 59 72 83 91 99 98 92 93 94 95 97 97 97 97 96 91 76 75 67 61 68 80 95 89 86

GFSGL_850_rhum_036.txt.gz
RH
75 73 72 74 71 64 54 53 49 50 59 76 68 54 54 54 62 64 62 59 67 68 70 64 72 92 84 85 82 82 82 74 68 61 57 44 35 34 35 44 55 60 62
68 67 68 70 68 61 51 46 64 69 74 57 55 54 56 62 66 66 59 64 69 70 75 70 72 88 88 80 78 75 66 67 67 61 44 41 36 42 53 58 61 62 62
66 66 67 66 62 60 52 62 72 81 59 56 56 59 62 62 66 63 62 69 69 75 73 75 68 83 78 78 74 68 67 67 60 56 54 48 33 51 58 64 68 68 70
63 65 65 64 62 60 60 68 84 58 70 66 62 57 53 68 66 61 68 73 73 77 80 78 70 77 74 71 69 69 69 66 67 70 57 33 36 57 74 80 78 74 58
67 68 65 66 62 62 74 88 69 82 72 74 52 48 53 57 48 62 71 70 74 82 87 78 57 44 55 72 72 70 72 72 80 62 40 28 48 76 90 92 89 77 60
70 67 69 65 66 76 81 87 94 76 94 68 56 53 52 50 64 67 71 76 78 87 87 78 72 53 55 65 71 76 78 86 67 47 28 34 73 91 94 94 85 83 93
71 68 69 63 67 79 97 89 97 96 89 64 69 54 51 63 67 68 74 78 79 87 84 86 80 70 60 70 76 81 87 77 61 36 29 45 64 77 76 89 90 93 97
73 72 68 66 80 85 94 95 95 91 83 60 53 56 62 68 74 74 76 78 87 92 95 95 90 72 65 75 77 83 75 62 45 39 40 43 61 79 92 96 98 97 90
73 68 69 72 77 98 95 90 92 64 55 55 62 56 71 78 78 80 90 94 95 94 92 96 86 74 69 72 81 74 60 43 45 53 60 61 63 84 94 97 93 94 85
70 68 70 83 94 98 99 71 57 59 60 51 64 70 70 72 82 88 95 98 97 96 93 96 80 64 73 72 68 65 46 44 53 61 64 67 62 65 78 91 95 98 99
77 76 88 98 99 79 59 54 56 55 61 65 71 81 78 73 77 79 92 100 98 98 96 92 82 76 70 67 70 50 49 54 64 72 75 80 80 82 74 78 86 91 97
87 97 98 80 63 62 56 45 38 50 66 77 83 80 77 85 87 81 89 98 100 98 91 87 95 86 72 65 58 57 64 72 76 89 84 81 89 90 79 82 70 85 91
99 95 71 61 53 45 38 40 42 49 61 59 68 75 76 84 88 87 93 98 100 96 88 97 98 93 83 71 78 66 74 78 87 89 83 84 92 90 80 81 68 92 85
57 50 46 37 32 33 36 39 44 45 52 57 72 82 85 80 84 86 92 94 90 99 97 96 97 96 94 85 91 78 82 86 88 91 91 94 96 89 79 85 81 76 78
31 32 33 34 36 38 40 44 49 50 59 68 69 66 66 64 72 91 98 97 95 90 96 96 97 94 90 93 95 88 81 94 85 92 98 96 97 81 79 84 88 79 81
38 42 42 42 46 51 55 59 61 65 67 70 73 74 67 68 72 81 94 92 94 98 97 92 94 94 93 91 93 89 83 94 90 90 99 99 98 75 79 80 91 88 80
63 64 72 76 76 77 84 90 91 77 78 81 84 82 83 83 72 74 87 87 92 100 96 90 86 93 96 94 85 82 84 88 93 86 96 100 89 67 79 82 89 91 79
70 77 85 94 98 100 99 96 96 99 96 94 93 92 80 85 84 81 81 98 97 96 96 91 84 88 92 86 83 85 87 88 99 95 96 96 85 76 75 84 88 92 90
94 97 98 95 94 92 92 94 95 96 98 94 81 87 75 81 81 88 92 90 96 96 99 96 93 89 91 90 84 85 85 88 93 100 100 100 93 83 76 85 86 92 92
44 36 38 44 45 42 39 43 48 75 100 100 100 85 96 85 76 73 92 85 92 95 94 98 96 88 87 88 82 86 90 95 98 99 100 100 97 80 83 78 82 91 89
21 27 34 36 47 63 74 83 97 86 83 76 98 97 98 97 80 84 91 92 97 97 94 97 96 89 91 96 95 87 89 92 94 93 99 99 88 70 86 76 74 87 90
29 37 51 73 71 82 99 100 100 100 100 100 94 92 85 97 91 92 97 96 100 95 95 97 96 96 96 96 96 96 97 93 92 91 97 100 98 72 84 78 71 81 85
39 48 58 69 80 78 84 89 91 88 92 94 97 98 97 88 94 98 99 98 99 89 83 91 96 97 94 95 96 96 97 96 94 96 97 100 100 84 80 85 71 73 76
52 52 60 67 71 77 84 92 91 98 99 100 96 97 99 98 97 97 97 97 99 98 98 94 96 97 97 96 96 96 99 98 97 97 98 96 97 96 83 79 70 71 74
56 58 65 69 73 80 86 86 86 90 95 96 96 96 96 97 96 96 96 89 81 80 83 94 96 96 96 96 98 92 80 84 96 95 98 98 96 96 92 76 67 71 75
61 65 70 74 77 81 86 88 90 89 91 93 95 96 96 96 95 95 95 88 80 76 77 79 75 63 58 59 83 86 94 94 88 90 95 98 97 96 93 75 67 67 74

GFSGL_850_rhum_042.txt.gz
RH
75 84 91 85 78 68 71 64 67 82 88 86 80 78 75 78 70 91 70 66 65 65 56 64 71 75 76 71 68 64 71 78 77 71 68 70 64 54 42 34 29 32 38
62 81 76 71 70 68 62 90 94 89 87 64 72 67 79 81 88 89 69 67 66 51 57 71 74 79 79 77 71 64 71 80 76 70 70 66 58 48 38 32 30 37 46
58 59 60 64 64 80 86 84 82 79 64 77 71 77 86 97 92 84 80 69 62 51 67 74 76 86 86 81 73 63 58 68 71 74 65 65 57 45 34 31 32 36 39
58 64 68 68 82 84 82 78 74 66 65 70 82 99 91 96 94 90 80 78 63 64 69 74 79 87 87 86 73 69 61 65 73 70 70 67 55 40 35 35 34 40 45
63 64 79 88 82 81 78 69 59 61 78 86 94 96 99 100 98 92 90 70 62 68 71 75 83 88 92 89 82 78 74 70 75 76 74 71 49 38 38 43 49 46 51
86 96 94 86 77 78 72 61 64 78 83 98 99 100 99 99 91 71 67 58 62 67 72 78 86 94 97 96 89 92 82 75 81 84 81 68 47 40 47 53 57 72 100
93 94 92 89 82 74 68 73 88 97 100 100 100 100 96 75 75 63 57 50 61 73 77 82 89 96 98 98 96 96 82 83 86 88 80 62 43 47 58 60 64 85 94
92 96 94 88 82 76 86 94 100 99 100 100 95 78 69 60 56 42 45 48 63 73 82 87 92 98 98 97 96 88 76 85 90 93 77 50 47 55 66 71 76 78 71
89 91 89 85 85 90 99 99 99 100 92 92 65 58 58 42 50 54 56 54 56 68 86 93 97 99 98 98 97 83 71 77 92 83 67 47 54 61 78 83 76 80 73
89 88 88 88 92 97 100 99 99 92 69 59 54 55 50 49 51 55 66 67 68 73 78 85 87 96 99 97 97 84 78 66 81 77 52 54 62 67 75 78 81 82 87
88 87 90 99 99 99 99 94 82 64 56 49 45 41 42 44 46 52 64 70 71 78 78 84 99 100 98 98 97 92 86 77 73 65 58 62 67 70 69 73 78 80 81
96 100 100 99 91 82 69 58 51 45 41 40 42 40 39 42 48 49 54 62 67 76 71 79 83 98 98 98 97 93 98 86 71 71 68 70 74 78 81 84 84 70 72
85 70 63 55 49 45 40 39 38 40 44 47 50 50 49 49 53 59 61 66 65 68 65 84 92 98 98 98 97 95 98 93 80 85 81 78 82 87 86 92 87 65 65
38 34 34 34 35 39 41 44 47 51 62 68 73 77 78 77 78 82 79 81 77 73 67 79 90 98 99 98 99 97 96 95 95 94 93 86 88 86 88 95 85 58 60
37 39 43 46 48 46 50 57 62 68 82 86 88 92 95 88 86 90 91 96 98 96 95 92 86 94 94 88 95 94 96 96 97 94 98 91 93 90 89 97 77 57 65
46 49 55 60 63 62 54 38 27 19 14 16 19 32 29 60 57 64 70 92 97 98 97 91 87 84 89 92 91 96 97 96 98 97 99 93 94 90 94 96 80 67 66
56 53 43 28 13 9 9 9 8 7 9 10 15 23 42 51 50 63 79 82 99 100 98 97 90 82 80 83 89 94 96 96 97 98 96 92 94 93 95 94 89 76 60
18 11 9 8 9 10 11 12 14 17 15 12 26 48 52 57 72 77 68 80 94 95 96 97 94 98 86 82 86 97 96 97 96 90 86 87 95 95 94 95 93 86 61
8 9 9 10 12 14 17 21 28 39 48 57 56 53 60 57 57 54 72 99 100 96 97 98 99 98 98 83 92 96 96 97 95 92 82 89 95 94 89 97 95 90 63
11 12 13 15 19 21 25 29 33 42 58 70 84 90 85 84 85 92 94 93 97 94 97 96 100 99 93 92 94 96 96 98 94 90 84 87 92 95 89 97 97 86 64
14 16 19 23 27 30 34 38 46 53 60 66 72 81 89 94 96 95 98 97 97 97 98 97 97 100 97 94 97 96 96 97 95 86 85 84 88 97 95 100 99 84 66
19 22 25 30 35 39 44 51 56 59 63 66 68 71 74 82 85 92 95 95 97 98 97 97 98 95 89 96 95 95 96 97 97 95 92 88 93 99 97 98 99 87 76
25 27 32 37 42 46 52 56 60 63 66 70 72 74 76 78 82 90 95 95 95 95 96 97 98 97 98 94 95 95 96 97 97 96 96 95 95 97 95 93 98 94 82
31 35 39 45 50 53 58 60 64 66 68 70 73 76 79 81 82 83 90 94 95 96 96 95 96 98 96 96 92 95 96 96 96 97 97 96 97 97 98 94 96 94 88
39 45 49 52 54 57 60 63 66 68 69 70 70 70 71 75 80 84 85 87 94 96 96 96 96 96 93 87 81 90 94 95 96 96 96 96 97 97 97 97 96 96 92
48 52 55 59 61 62 64 66 66 65 62 60 61 63 65 66 66 66 72 84 88 93 96 96 96 96 100 91 92 95 94 92 95 96 96 98 100 96 96 96 97 95 94

GFSGL_850_rhum_045.txt.gz
RH
55 61 66 71 83 90 87 78 75 97 100 100 90 87 79 81 82 73 78 92 68 76 64 60 58 66 72 77 78 75 94 98 96 75 83 78 64 64 61 46 28 25 26
62 62 62 58 61 67 72 69 72 89 100 99 97 85 83 87 82 74 93 99 92 71 64 54 61 72 75 80 85 79 91 89 87 76 71 76 77 61 50 36 28 26 31
61 60 60 59 62 67 71 73 99 100 100 100 98 80 98 80 89 93 98 90 78 74 70 62 65 73 78 83 86 81 81 71 65 75 74 76 81 78 65 54 43 38 56
63 62 66 69 74 87 100 100 96 99 100 99 80 82 81 95 99 100 99 95 84 75 76 69 68 71 78 85 84 86 82 76 76 80 77 75 82 82 68 60 67 68 72
82 81 85 97 98 99 93 92 90 80 72 68 82 83 99 99 100 99 99 95 92 78 64 65 67 71 78 88 91 94 91 84 85 84 80 78 79 76 67 64 79 75 76
79 92 100 100 95 88 84 82 78 75 77 85 92 97 98 99 99 100 84 75 67 62 60 60 65 72 76 93 96 94 95 89 94 91 85 83 82 84 72 79 86 86 78
83 94 96 96 89 83 82 78 75 78 92 95 98 100 99 99 97 79 69 67 64 52 45 52 70 76 76 92 97 99 96 95 90 89 98 91 97 85 72 87 90 90 89
80 92 96 94 89 84 80 81 93 98 99 100 98 96 93 77 67 62 57 55 51 44 43 55 71 79 81 90 94 97 95 89 79 70 85 89 89 63 60 98 100 100 93
83 90 91 88 84 83 86 92 99 100 99 96 86 76 67 58 61 56 59 61 58 50 52 58 64 75 82 85 93 97 98 89 74 73 83 90 77 52 56 92 100 94 94
88 88 89 89 88 90 99 99 100 99 88 72 62 60 60 60 52 52 53 59 57 51 58 67 70 68 77 89 91 95 98 85 85 84 76 77 65 56 62 68 98 100 95
88 89 91 96 99 99 100 94 75 63 58 53 46 43 48 50 48 46 47 56 57 62 71 68 67 66 79 89 100 100 96 89 94 93 78 79 66 72 94 98 98 100 100
93 99 99 96 84 71 62 53 48 43 41 41 41 41 42 46 50 53 61 64 70 76 72 68 60 61 78 86 98 97 98 97 96 97 90 71 72 76 96 99 92 90 100
81 69 58 48 41 38 38 39 39 42 47 52 59 61 64 67 67 69 77 88 94 97 96 85 76 68 75 91 88 92 98 97 96 97 95 84 82 92 92 80 79 84 79
40 38 38 39 40 41 44 47 52 56 58 58 53 47 33 34 83 94 100 87 85 87 90 95 97 95 92 90 93 97 96 97 98 96 96 95 94 89 82 82 84 99 98
36 36 38 39 40 40 36 25 14 10 10 13 21 26 29 22 40 49 56 65 95 99 95 85 93 97 93 93 79 90 98 97 96 96 97 95 94 96 89 87 85 95 100
40 38 30 19 10 7 7 7 7 8 10 12 16 24 38 44 40 35 31 39 56 90 90 100 98 100 98 96 86 83 87 93 98 97 96 98 98 99 99 95 87 92 100
20 12 9 7 7 7 8 9 10 11 12 13 18 24 36 55 60 56 54 43 43 67 84 74 90 99 95 96 86 89 81 90 96 97 96 97 99 100 94 100 99 95 100
9 8 8 8 9 10 11 13 15 17 20 23 25 32 41 49 67 75 69 76 93 99 100 97 94 96 98 97 96 100 86 92 97 97 98 96 94 99 99 95 99 96 100
9 9 10 11 13 14 16 18 21 24 27 30 31 34 37 43 50 66 73 80 88 95 95 97 95 95 98 97 100 100 94 98 97 97 98 96 86 86 94 99 98 90 89
10 11 12 14 16 19 22 25 30 32 36 39 42 45 46 46 50 57 69 80 88 89 93 96 93 97 96 99 98 97 99 99 96 98 97 96 90 85 94 91 89 92 92
12 14 17 19 22 25 29 34 38 42 46 49 51 54 58 62 64 70 74 78 91 92 94 93 96 97 96 97 97 96 98 98 98 98 96 96 93 85 92 93 94 95 94
16 19 21 24 27 32 36 41 46 49 52 54 55 57 58 62 66 69 71 73 78 92 98 96 95 95 96 96 96 99 100 98 97 96 96 96 94 86 88 94 99 98 95
20 24 27 31 35 40 44 49 52 55 58 60 61 60 59 61 61 63 66 72 76 78 91 97 96 96 95 96 96 98 99 99 97 96 97 96 96 89 92 96 96 94 95
26 30 34 38 43 47 51 54 58 62 62 57 52 50 50 50 52 54 58 60 60 73 82 93 97 96 96 95 96 99 100 98 96 96 97 97 96 97 96 95 94 90 95
34 39 42 46 50 54 58 62 63 56 52 52 52 54 56 57 57 58 58 58 58 56 62 79 94 96 96 96 96 100 99 99 97 96 96 96 97 97 97 97 96 95 95
44 47 51 56 60 64 65 60 54 54 57 57 59 62 64 64 64 65 65 64 63 59 56 57 75 96 96 96 96 97 100 100 100 97 96 96 96 96 96 96 97 96 96

GFSGL_850_rhum_048.txt.gz
RH
89 86 71 72 77 86 91 95 93 94 93 84 96 99 98 96 89 83 91 96 93 100 100 99 92 82 74 75 79 78 73 69 64 56 55 54 65 75 73 69 69 65 51
93 92 95 87 86 88 93 96 89 98 96 100 100 100 100 98 87 93 100 98 97 100 99 98 90 77 79 82 77 82 80 75 69 62 58 57 58 63 71 73 70 57 53
92 76 70 72 72 71 78 79 91 96 98 100 100 100 100 94 90 95 98 99 100 99 98 98 88 84 80 82 81 87 80 72 68 68 62 60 60 61 65 66 63 54 56
72 75 78 81 88 95 99 99 98 99 98 100 100 100 100 92 98 99 95 100 100 99 99 99 91 91 83 81 78 85 89 80 72 69 62 60 60 59 63 61 54 44 50
81 87 91 100 98 99 99 96 92 98 100 100 100 99 95 99 98 99 100 100 100 100 98 100 91 85 67 76 73 70 83 85 80 66 62 61 59 59 54 55 57 52 54
82 86 91 96 95 89 85 85 85 82 77 77 87 92 88 91 100 100 100 100 99 100 93 85 82 80 74 61 71 79 79 88 80 75 80 81 66 62 60 65 55 57 59
71 81 90 90 88 86 84 83 80 78 80 86 86 98 99 100 100 100 96 83 96 89 86 81 75 68 77 77 86 76 77 88 93 96 97 88 74 67 67 68 58 63 65
73 82 88 89 88 85 83 82 82 83 89 98 99 99 96 94 80 68 64 62 76 83 82 80 76 72 76 86 89 90 86 87 98 98 95 87 76 76 77 74 72 81 78
77 83 83 85 84 87 83 85 93 98 99 100 100 100 99 94 72 61 63 66 89 85 81 78 77 78 77 80 73 93 88 90 97 97 92 87 76 73 78 82 85 79 80
88 89 95 97 98 98 97 99 99 99 99 92 84 87 73 48 45 44 54 62 74 80 82 81 80 82 62 70 75 75 98 89 92 98 96 78 75 72 72 65 90 84 79
93 95 91 90 95 98 98 95 86 81 63 48 36 38 39 46 50 48 54 65 75 91 93 87 84 88 84 63 72 77 78 94 100 98 97 89 87 86 81 89 94 85 82
84 90 98 98 93 77 63 52 45 58 50 67 72 73 91 96 97 93 73 72 82 95 98 98 98 99 99 90 80 78 87 92 99 99 97 98 96 92 82 80 80 81 82
89 81 65 48 37 34 46 49 74 83 89 92 86 87 80 84 83 83 86 52 40 41 53 91 87 91 96 98 96 94 97 97 99 100 98 98 98 99 98 96 94 90 92
50 40 40 33 44 35 48 43 53 39 23 28 58 69 75 69 87 88 33 35 24 20 58 80 77 96 92 87 97 98 98 96 97 99 98 99 98 97 99 99 98 94 97
38 33 35 37 29 28 23 9 8 9 7 8 14 14 23 42 63 36 48 50 49 45 50 35 80 81 77 85 96 97 97 96 93 97 98 96 96 100 96 100 100 97 96
35 30 18 11 9 10 21 49 16 10 10 10 12 17 20 26 30 34 42 49 51 61 91 99 85 79 80 80 92 99 98 96 100 94 100 99 96 97 98 97 100 98 95
17 12 10 8 9 10 13 27 60 71 27 21 18 20 22 26 28 27 30 34 57 67 100 100 100 99 99 97 93 97 98 96 96 91 100 99 96 96 99 96 100 99 97
11 10 9 9 11 12 15 17 32 46 63 80 63 28 26 28 30 31 33 39 83 99 100 100 100 100 100 88 95 98 98 97 96 100 100 100 96 98 96 96 100 99 96
11 10 9 10 11 12 14 19 37 48 78 76 81 83 69 36 39 60 66 100 100 100 100 100 100 100 100 96 96 98 96 96 100 100 100 100 99 96 96 95 98 98 96
11 10 11 13 15 16 19 24 36 58 66 78 94 98 59 42 72 100 100 100 100 100 100 100 100 100 100 95 96 97 97 97 98 99 98 100 98 98 97 95 99 98 100
13 12 14 16 17 20 24 30 35 50 60 73 100 96 47 48 100 100 100 100 100 100 100 100 100 99 99 95 94 96 96 97 97 98 98 98 96 98 96 94 94 94 94
14 16 18 20 23 26 30 34 39 45 56 72 85 77 40 61 99 100 100 100 100 100 100 100 96 100 98 96 96 95 96 97 96 95 95 96 96 98 96 94 95 95 100
17 20 23 25 29 31 35 39 45 51 57 57 55 53 50 68 68 99 100 100 100 72 79 70 71 80 94 96 97 97 96 95 95 96 98 95 96 97 96 96 100 100 100
22 25 29 32 34 40 42 47 53 61 51 45 43 54 75 73 88 96 100 92 66 61 60 55 54 59 79 94 96 96 96 95 97 97 96 96 95 98 99 96 96 100 100
30 34 37 41 43 45 49 56 58 56 48 45 52 57 75 77 96 100 96 80 66 64 59 57 53 55 57 80 96 96 96 96 97 97 97 96 96 95 98 97 96 99 97
40 44 48 50 53 55 60 63 60 51 48 47 48 56 66 76 79 83 76 74 74 67 62 62 60 60 59 60 88 96 96 96 96 97 98 97 96 96 97 97 98 98 96